This is the latest recevied weather packets stored in our database for station/object DH9SB-6. If no packets are shown the sender has not sent any weather packets the latest 10 day(s).
| Time | Temp. | Humidity | Pressure | Rain* | Wind** | Luminosity | Snow |
|---|---|---|---|---|---|---|---|
| 1787557647 | 21.11° C | 46% | - | 0 mm | - | - | - |
| 1787557070 | 20° C | 48% | - | 0 mm | - | - | - |
| 1787556446 | 19.44° C | 50% | - | 0 mm | - | - | - |
| 1787555871 | 18.89° C | 47% | - | 0 mm | - | - | - |
| 1787555247 | 19.44° C | 47% | - | 0 mm | - | - | - |
| 1787554670 | 19.44° C | 51% | - | 0 mm | - | - | - |
| 1787554049 | 18.33° C | 51% | - | 0 mm | - | - | - |
| 1787553471 | 17.78° C | 58% | - | 0 mm | - | - | - |
| 1787552847 | 15.56° C | 64% | - | 0 mm | - | - | - |
| 1787552271 | 14.44° C | 68% | - | 0 mm | - | - | - |
| 1787551648 | 13.33° C | 69% | - | 0 mm | - | - | - |
| 1787551071 | 13.33° C | 70% | - | 0 mm | - | - | - |
| 1787550447 | 12.78° C | 70% | - | 0 mm | - | - | - |
| 1787549870 | 12.22° C | 73% | - | 0 mm | - | - | - |
| 1787549247 | 12.22° C | 73% | - | 0 mm | - | - | - |
| 1787548670 | 12.22° C | 74% | - | 0 mm | - | - | - |
| 1787548047 | 11.67° C | 74% | - | 0 mm | - | - | - |
| 1787547470 | 11.67° C | 75% | - | 0 mm | - | - | - |
| 1787546848 | 11.11° C | 75% | - | 0 mm | - | - | - |
| 1787546322 | 11.11° C | 76% | - | 0 mm | - | - | - |
| 1787545647 | 11.11° C | 76% | - | 0 mm | - | - | - |
| 1787545070 | 11.11° C | 76% | - | 0 mm | - | - | - |
| 1787544785 | 11.11° C | 75% | - | 0 mm | - | - | - |
| 1787544159 | 11.11° C | 75% | - | 0 mm | - | - | - |
| 1787543631 | 11.11° C | 76% | - | 0 mm | - | - | - |
* Rain latest hour (hover to see other rain measurements)
** Current wind speed in m/s (hover to see current wind gust speed)